O'Neill, NE

10:23 AM CDT on June 27, 2017 (GMT -0500)
The O'Neill Municipal-Baker

Weather History for KONL - December, 2012

Change the Weather History Date:

Friday, December 21, 2012

  Actual Average Record
Temperature  
Mean Temperature 18 °F -  
Max Temperature 32 °F 31 °F 56 °F (1982)
Min Temperature 3 °F 10 °F -28 °F (1983)
Degree Days  
Heating Degree Days 48    
Moisture  
Dew Point 12 °F    
Average Humidity 79    
Maximum Humidity 90    
Minimum Humidity 64    
Precipitation  
Precipitation 0.00 in - - ()
Sea Level Pressure  
Sea Level Pressure 30.12 in    
Wind  
Wind Speed 5 mph (South)    
Max Wind Speed 13 mph    
Max Gust Speed -    
Visibility 10 miles    
Events      
Averages and records for this station are not official NWS values.
T = Trace of Precipitation, MM = Missing Value Source: NWS Daily Summary

Daily Weather History Graph

Daily Weather History Graph

Search for Another Location

Airport or City:

Trip Planner

Search our weather history database for the weather conditions in past years. The results will help you decide how hot, cold, wet, or windy it might be!

Date:

Astronomy

Dec. 21, 2012 Rise Set
Actual Time 8:01 AM CST 5:05 PM CST
Civil Twilight 7:29 AM CST 5:37 PM CST
Nautical Twilight 6:53 AM CST 6:12 PM CST
Astronomical Twilight 6:19 AM CST 6:47 PM CST
Moon 12:57 PM CST (12/21) 1:44 AM CST (12/21)
Length of Visible Light 10h 08m
Length of Day
9h 03m
Waxing Gibbous, 65% of the Moon is Illuminated
Dec 21
Waxing Gibbous
Dec 28
Full
Jan 4
Last Quarter
Jan 11
New
Jan 18
First Quarter

Hourly Weather History & Observations

Time (CST) Temp. Windchill Dew Point Humidity Pressure Visibility Wind Dir Wind Speed Gust Speed Precip Events Conditions
12:15 AM 11.1 °F - 8.6 °F 90% 30.18 in 10.0 mi Calm Calm - N/A   Clear
12:35 AM 10.2 °F - 6.6 °F 85% 30.18 in 10.0 mi Calm Calm - N/A   Clear
12:55 AM 8.1 °F - 4.6 °F 86% 30.18 in 10.0 mi Calm Calm - N/A   Clear
1:15 AM 7.0 °F - 3.7 °F 87% 30.18 in 10.0 mi Calm Calm - N/A   Clear
1:35 AM 7.2 °F - 4.1 °F 87% 30.18 in 10.0 mi Calm Calm - N/A   Clear
1:55 AM 6.1 °F -0.9 °F 3.0 °F 87% 30.18 in 10.0 mi SSW 3.5 mph - N/A   Clear
2:15 AM 5.2 °F - 2.5 °F 89% 30.18 in 10.0 mi Calm Calm - N/A   Clear
2:35 AM 6.3 °F - 3.0 °F 87% 30.18 in 10.0 mi Calm Calm - N/A   Clear
2:55 AM 5.7 °F -1.3 °F 2.1 °F 85% 30.18 in 10.0 mi SSW 3.5 mph - N/A   Clear
3:15 AM 3.4 °F -4.0 °F -0.2 °F 85% 30.19 in 10.0 mi SW 3.5 mph - N/A   Clear
3:35 AM 5.9 °F -3.0 °F 2.8 °F 87% 30.18 in 10.0 mi SSW 4.6 mph - N/A   Clear
3:55 AM 7.5 °F -1.1 °F 4.6 °F 88% 30.18 in 10.0 mi SSW 4.6 mph - N/A   Clear
4:15 AM 6.6 °F -0.3 °F 2.8 °F 84% 30.17 in 10.0 mi SSW 3.5 mph - N/A   Clear
4:35 AM 5.4 °F -3.6 °F 1.9 °F 86% 30.17 in 10.0 mi SSW 4.6 mph - N/A   Clear
4:55 AM 5.0 °F -2.1 °F 1.9 °F 87% 30.17 in 10.0 mi SSW 3.5 mph - N/A   Clear
5:15 AM 5.0 °F -4.1 °F 1.4 °F 85% 30.17 in 10.0 mi SSW 4.6 mph - N/A   Clear
5:35 AM 5.7 °F -3.2 °F 2.3 °F 86% 30.17 in 10.0 mi SSW 4.6 mph - N/A   Clear
5:55 AM 4.3 °F -7.8 °F 0.5 °F 84% 30.17 in 10.0 mi SW 6.9 mph - N/A   Clear
6:15 AM 5.9 °F -1.1 °F 2.7 °F 87% 30.17 in 10.0 mi SW 3.5 mph - N/A   Clear
6:35 AM 7.2 °F -1.5 °F 3.6 °F 85% 30.17 in 10.0 mi SSW 4.6 mph - N/A   Clear
6:55 AM 5.7 °F -1.3 °F 1.9 °F 84% 30.17 in 10.0 mi SSW 3.5 mph - N/A   Clear
7:15 AM 6.1 °F -2.8 °F 2.3 °F 84% 30.17 in 10.0 mi South 4.6 mph - N/A   Clear
7:35 AM 6.6 °F -3.7 °F 3.0 °F 85% 30.17 in 10.0 mi South 5.8 mph - N/A   Clear
7:55 AM 7.7 °F -2.4 °F 4.5 °F 87% 30.17 in 10.0 mi South 5.8 mph - N/A   Clear
8:15 AM 8.2 °F -0.3 °F 4.6 °F 85% 30.17 in 10.0 mi South 4.6 mph - N/A   Clear
8:35 AM 7.9 °F -0.7 °F 4.3 °F 85% 30.17 in 10.0 mi South 4.6 mph - N/A   Clear
8:55 AM 9.5 °F 3.0 °F 5.9 °F 85% 30.18 in 10.0 mi South 3.5 mph - N/A   Clear
9:15 AM 10.9 °F 2.9 °F 6.8 °F 83% 30.18 in 10.0 mi South 4.6 mph - N/A   Clear
9:35 AM 12.6 °F - 8.2 °F 83% 30.18 in 10.0 mi Calm Calm - N/A   Clear
9:55 AM 14.7 °F - 10.0 °F 82% 30.18 in 10.0 mi Calm Calm - N/A   Clear
10:15 AM 18.0 °F 11.1 °F 12.0 °F 78% 30.18 in 10.0 mi SSE 4.6 mph - N/A   Clear
10:35 AM 20.7 °F 13.0 °F 13.5 °F 74% 30.18 in 10.0 mi SSE 5.8 mph - N/A   Clear
10:55 AM 21.9 °F 14.5 °F 14.0 °F 72% 30.18 in 10.0 mi SSE 5.8 mph - N/A   Clear
11:15 AM 23.0 °F 14.7 °F 14.0 °F 68% 30.17 in 10.0 mi SSE 6.9 mph - N/A   Clear
11:35 AM 23.9 °F 15.0 °F 14.5 °F 67% 30.17 in 10.0 mi SSE 8.1 mph - N/A   Clear
11:55 AM 24.8 °F 14.6 °F 15.4 °F 68% 30.15 in 10.0 mi SSE 10.4 mph - N/A   Clear
12:15 PM 26.1 °F 16.8 °F 16.3 °F 67% 30.15 in 10.0 mi SSE 9.2 mph - N/A   Clear
12:35 PM 27.3 °F 18.4 °F 17.1 °F 65% 30.14 in 10.0 mi SSE 9.2 mph - N/A   Clear
12:55 PM 28.0 °F 18.1 °F 17.4 °F 64% 30.13 in 10.0 mi SSE 11.5 mph - N/A   Clear
1:15 PM 28.8 °F 18.4 °F 18.1 °F 65% 30.12 in 10.0 mi SSE 12.7 mph - N/A   Clear
1:35 PM 29.8 °F 20.3 °F 19.4 °F 65% 30.12 in 10.0 mi SSE 11.5 mph - N/A   Clear
1:55 PM 30.7 °F 22.0 °F 20.3 °F 65% 30.11 in 10.0 mi SSE 10.4 mph - N/A   Clear
2:15 PM 31.3 °F 22.7 °F 20.7 °F 65% 30.10 in 10.0 mi SSE 10.4 mph - N/A   Clear
2:35 PM 32.0 °F 23.0 °F 21.2 °F 64% 30.09 in 10.0 mi SSE 11.5 mph - N/A   Clear
2:55 PM 32.4 °F 23.5 °F 21.9 °F 65% 30.09 in 10.0 mi South 11.5 mph - N/A   Clear
3:15 PM 32.9 °F 24.7 °F 21.9 °F 64% 30.08 in 10.0 mi South 10.4 mph - N/A   Clear
3:35 PM 32.7 °F 24.5 °F 22.5 °F 66% 30.08 in 10.0 mi SSE 10.4 mph - N/A   Clear
3:55 PM 32.2 °F 23.2 °F 22.1 °F 66% 30.08 in 10.0 mi South 11.5 mph - N/A   Clear
4:15 PM 31.5 °F 22.3 °F 22.1 °F 68% 30.07 in 10.0 mi South 11.5 mph - N/A   Clear
4:35 PM 29.8 °F 20.3 °F 21.7 °F 72% 30.08 in 10.0 mi SSE 11.5 mph - N/A   Clear
4:55 PM 28.6 °F 18.7 °F 21.2 °F 74% 30.07 in 10.0 mi SSE 11.5 mph - N/A   Clear
5:15 PM 27.5 °F 17.4 °F 20.8 °F 76% 30.07 in 10.0 mi SSE 11.5 mph - N/A   Clear
5:35 PM 27.3 °F 17.1 °F 20.8 °F 77% 30.07 in 10.0 mi SSE 11.5 mph - N/A   Clear
5:55 PM 27.1 °F 17.5 °F 20.8 °F 77% 30.07 in 10.0 mi SSE 10.4 mph - N/A   Clear
6:15 PM 25.7 °F 15.1 °F 20.1 °F 79% 30.06 in 10.0 mi SSE 11.5 mph - N/A   Clear
6:35 PM 25.0 °F 14.8 °F 19.4 °F 79% 30.06 in 10.0 mi SSE 10.4 mph - N/A   Clear
6:55 PM 23.5 °F 13.0 °F 18.5 °F 81% 30.06 in 10.0 mi SSE 10.4 mph - N/A   Clear
7:15 PM 23.0 °F 12.4 °F 18.1 °F 82% 30.06 in 10.0 mi SSE 10.4 mph - N/A   Clear
7:35 PM 22.1 °F 10.6 °F 17.6 °F 83% 30.05 in 10.0 mi SSE 11.5 mph - N/A   Clear
7:55 PM 22.5 °F 11.7 °F 17.6 °F 82% 30.05 in 10.0 mi SSE 10.4 mph - N/A   Clear
8:15 PM 22.1 °F 11.3 °F 17.4 °F 82% 30.04 in 10.0 mi SSE 10.4 mph - N/A   Clear
8:35 PM 21.0 °F 9.9 °F 16.5 °F 83% 30.04 in 10.0 mi South 10.4 mph - N/A   Clear
8:55 PM 20.8 °F 9.7 °F 16.5 °F 83% 30.03 in 10.0 mi South 10.4 mph - N/A   Clear
9:15 PM 20.8 °F 9.7 °F 16.5 °F 83% 30.03 in 10.0 mi South 10.4 mph - N/A   Clear
9:35 PM 20.8 °F 9.7 °F 16.5 °F 83% 30.02 in 10.0 mi South 10.4 mph - N/A   Clear
9:55 PM 20.5 °F 9.2 °F 16.0 °F 83% 30.02 in 10.0 mi South 10.4 mph - N/A   Clear
10:15 PM 20.5 °F 8.6 °F 16.2 °F 83% 30.01 in 10.0 mi South 11.5 mph - N/A   Clear
10:35 PM 20.1 °F 8.8 °F 15.8 °F 83% 30.01 in 10.0 mi South 10.4 mph - N/A   Clear
10:55 PM 19.9 °F 8.6 °F 15.3 °F 82% 30.00 in 10.0 mi South 10.4 mph - N/A   Clear
11:15 PM 18.9 °F 7.2 °F 14.9 °F 85% 30.00 in 10.0 mi South 10.4 mph - N/A   Clear
11:35 PM 19.2 °F 8.4 °F 14.7 °F 83% 30.00 in 10.0 mi South 9.2 mph - N/A   Clear
11:55 PM 22.1 °F 11.3 °F 16.3 °F 79% 30.00 in 10.0 mi South 10.4 mph - N/A   Clear